| time (UTC) | temp F | wind direction | speed MPH | gust MPH | rain 1hr in | rain 24hr in | rain mn in | humidity % | barometer mb |
| 20260505200014 | 52 | 70 | 10.0 | 21.0 | 0.00 | 0.00 | 0.00 | 74 | 1008.1 |
| 20260505194513 | 52 | 60 | 13.0 | 21.0 | 0.00 | 0.00 | 0.00 | 74 | 1008.3 |
| 20260505193012 | 52 | 42 | 10.0 | 22.0 | 0.00 | 0.00 | 0.00 | 75 | 1008.3 |
| 20260505191508 | 52 | 52 | 12.0 | 23.0 | 0.00 | 0.00 | 0.00 | 75 | 1008.0 |
| 20260505190006 | 53 | 48 | 12.0 | 23.0 | 0.00 | 0.00 | 0.00 | 75 | 1007.8 |
| 20260505184505 | 53 | 34 | 12.0 | 29.0 | 0.00 | 0.00 | 0.00 | 75 | 1007.6 |
| 20260505183003 | 53 | 27 | 11.0 | 20.0 | 0.00 | 0.00 | 0.00 | 75 | 1007.3 |
| 20260505181600 | 53 | 75 | 13.0 | 24.0 | 0.00 | 0.00 | 0.00 | 76 | 1007.2 |
| 20260505180059 | 53 | 61 | 8.0 | 20.0 | 0.00 | 0.00 | 0.00 | 79 | 1007.2 |
| 20260505174556 | 53 | 40 | 11.0 | 19.0 | 0.00 | 0.00 | 0.00 | 80 | 1007.1 |
| 20260505173058 | 53 | 64 | 6.0 | 15.0 | 0.00 | 0.00 | 0.00 | 81 | 1006.6 |
| 20260505171559 | 53 | 44 | 11.0 | 20.0 | 0.00 | 0.00 | 0.00 | 81 | 1006.6 |
| 20260505170048 | 54 | 64 | 5.0 | 19.0 | 0.00 | 0.00 | 0.00 | 82 | 1006.3 |
| 20260505164545 | 54 | 3 | 14.0 | 22.0 | 0.00 | 0.00 | 0.00 | 80 | 1006.0 |
| 20260505163044 | 54 | 54 | 15.0 | 22.0 | 0.00 | 0.00 | 0.00 | 80 | 1005.5 |
| 20260505161543 | 54 | 56 | 10.0 | 18.0 | 0.00 | 0.00 | 0.00 | 81 | 1004.9 |
| 20260505153032 | 54 | 44 | 11.0 | 24.0 | 0.00 | 0.00 | 0.00 | 83 | 1004.3 |
| 20260505151534 | 54 | 41 | 16.0 | 26.0 | 0.00 | 0.00 | 0.00 | 84 | 1004.2 |
| 20260505124558 | 65 | 273 | 2.0 | 7.0 | 0.00 | 0.00 | 0.00 | 84 | 1001.2 |
| 20260505123054 | 64 | 229 | 3.0 | 7.0 | 0.00 | 0.00 | 0.00 | 84 | 1000.7 |
| 20260505121554 | 65 | 55 | 4.0 | 9.0 | 0.00 | 0.00 | 0.00 | 84 | 1000.4 |
| 20260505120109 | 65 | 54 | 4.0 | 10.0 | 0.00 | 0.00 | 0.00 | 84 | 1000.6 |
| 20260505114551 | 64 | 218 | 1.0 | 7.0 | 0.00 | 0.00 | 0.00 | 84 | 1000.2 |
| 20260505113050 | 64 | 50 | 3.0 | 9.0 | 0.00 | 0.00 | 0.00 | 85 | 1000.4 |
| 20260505111548 | 64 | 68 | 4.0 | 13.0 | 0.00 | 0.00 | 0.00 | 85 | 1000.1 |
| 20260505101542 | 64 | 64 | 7.0 | 14.0 | 0.00 | 0.00 | 0.00 | 85 | 999.7 |
| 20260505100037 | 64 | 56 | 5.0 | 10.0 | 0.00 | 0.00 | 0.00 | 86 | 999.5 |
| 20260505094533 | 65 | 47 | 0.0 | 4.0 | 0.00 | 0.00 | 0.00 | 86 | 998.7 |
| 20260505093035 | 65 | 87 | 0.0 | 6.0 | 0.00 | 0.00 | 0.00 | 86 | 998.3 |
| 20260505091531 | 65 | 125 | 1.0 | 6.0 | 0.00 | 0.00 | 0.00 | 85 | 998.4 |
| 20260505090040 | 65 | 177 | 1.0 | 7.0 | 0.00 | 0.00 | 0.00 | 85 | 998.3 |
| 20260505084529 | 65 | 106 | 2.0 | 8.0 | 0.00 | 0.00 | 0.00 | 85 | 998.5 |
| 20260505083027 | 66 | 207 | 1.0 | 7.0 | 0.00 | 0.00 | 0.00 | 84 | 998.6 |
| 20260505081525 | 66 | 136 | 1.0 | 5.0 | 0.00 | 0.00 | 0.00 | 85 | 998.7 |
| 20260505080023 | 66 | 159 | 2.0 | 6.0 | 0.00 | 0.00 | 0.00 | 85 | 998.9 |
| 20260505074521 | 66 | 74 | 0.0 | 3.0 | 0.00 | 0.00 | 0.00 | 84 | 999.0 |
| 20260505073029 | 66 | 115 | 1.0 | 4.0 | 0.00 | 0.00 | 0.00 | 84 | 999.1 |
| 20260505071519 | 67 | 231 | 1.0 | 6.0 | 0.00 | 0.00 | 0.00 | 82 | 999.3 |
| 20260505070013 | 67 | 212 | 0.0 | 2.0 | 0.00 | 0.00 | 0.00 | 81 | 999.5 |
| 20260505064530 | 68 | 98 | 0.0 | 4.0 | 0.00 | 0.00 | 0.00 | 80 | 999.7 |
| 20260505063008 | 69 | 207 | 3.0 | 6.0 | 0.00 | 0.00 | 0.00 | 79 | 999.8 |
| 20260505061512 | 69 | 111 | 0.0 | 5.0 | 0.00 | 0.00 | 0.00 | 77 | 1000.0 |
| 20260505060001 | 71 | 67 | 2.0 | 6.0 | 0.00 | 0.00 | 0.00 | 75 | 1000.0 |
| 20260505054627 | 71 | 206 | 7.0 | 19.0 | 0.00 | 0.00 | 0.00 | 74 | 999.2 |
| 20260505053107 | 72 | 203 | 11.0 | 20.0 | 0.00 | 0.00 | 0.00 | 74 | 998.9 |
| 20260505051553 | 72 | 206 | 10.0 | 19.0 | 0.00 | 0.00 | 0.00 | 73 | 999.0 |
| 20260505041555 | 72 | 192 | 11.0 | 19.0 | 0.00 | 0.00 | 0.00 | 73 | 999.2 |
| 20260505040044 | 72 | 187 | 9.0 | 17.0 | 0.00 | 0.00 | 0.00 | 73 | 999.4 |
| 20260505034542 | 72 | 188 | 9.0 | 16.0 | 0.00 | 0.00 | 0.00 | 72 | 999.6 |
| 20260505033042 | 72 | 174 | 9.0 | 16.0 | 0.00 | 0.00 | 0.00 | 71 | 999.7 |
| 20260505031551 | 72 | 220 | 7.0 | 13.0 | 0.00 | 0.00 | 0.00 | 71 | 999.7 |
| 20260505030039 | 72 | 172 | 7.0 | 12.0 | 0.00 | 0.00 | 0.00 | 70 | 999.9 |
| 20260505024541 | 72 | 179 | 8.0 | 13.0 | 0.00 | 0.00 | 0.00 | 71 | 999.8 |
| 20260505023038 | 72 | 176 | 5.0 | 10.0 | 0.00 | 0.00 | 0.00 | 71 | 999.9 |
| 20260505021538 | 72 | 147 | 5.0 | 10.0 | 0.00 | 0.00 | 0.00 | 71 | 999.9 |
| 20260505020036 | 72 | 225 | 6.0 | 11.0 | 0.00 | 0.00 | 0.00 | 70 | 1000.0 |
| 20260505014538 | 73 | 172 | 6.0 | 11.0 | 0.00 | 0.00 | 0.00 | 69 | 999.9 |
| 20260505013035 | 73 | 133 | 6.0 | 11.0 | 0.00 | 0.00 | 0.00 | 68 | 1000.0 |
| 20260505011535 | 74 | 184 | 8.0 | 12.0 | 0.00 | 0.00 | 0.00 | 67 | 999.8 |
| 20260505010032 | 74 | 167 | 4.0 | 9.0 | 0.00 | 0.00 | 0.00 | 67 | 1000.0 |
| 20260505004544 | 75 | 188 | 5.0 | 10.0 | 0.00 | 0.00 | 0.00 | 65 | 1000.0 |
| 20260505003031 | 76 | 171 | 5.0 | 11.0 | 0.00 | 0.00 | 0.00 | 64 | 1000.0 |
| 20260505001530 | 76 | 187 | 7.0 | 12.0 | 0.00 | 0.00 | 0.00 | 63 | 1000.1 |
| 20260505000044 | 77 | 203 | 7.0 | 15.0 | 0.00 | 0.00 | 0.00 | 61 | 1000.1 |
| 20260504234526 | 77 | 197 | 8.0 | 16.0 | 0.00 | 0.00 | 0.00 | 60 | 1000.3 |
| 20260504233025 | 78 | 210 | 10.0 | 17.0 | 0.00 | 0.00 | 0.00 | 59 | 1000.5 |
| 20260504231524 | 78 | 214 | 8.0 | 17.0 | 0.00 | 0.00 | 0.00 | 58 | 1000.6 |
| 20260504230022 | 78 | 214 | 10.0 | 17.0 | 0.00 | 0.00 | 0.00 | 57 | 1000.9 |
| 20260504224521 | 79 | 201 | 12.0 | 20.0 | 0.00 | 0.00 | 0.00 | 56 | 1001.0 |
| 20260504223021 | 79 | 262 | 10.0 | 14.0 | 0.00 | 0.00 | 0.00 | 56 | 1001.0 |
| 20260504221520 | 79 | 179 | 9.0 | 22.0 | 0.00 | 0.00 | 0.00 | 55 | 1000.9 |
| 20260504220019 | 79 | 207 | 13.0 | 19.0 | 0.00 | 0.00 | 0.00 | 54 | 1001.1 |
| 20260504214519 | 80 | 174 | 10.0 | 15.0 | 0.00 | 0.00 | 0.00 | 55 | 1001.0 |
| 20260504213014 | 80 | 213 | 9.0 | 18.0 | 0.00 | 0.00 | 0.00 | 54 | 1001.2 |
| 20260504211511 | 81 | 212 | 10.0 | 20.0 | 0.00 | 0.00 | 0.00 | 52 | 1001.4 |
| 20260504210009 | 81 | 223 | 7.0 | 18.0 | 0.00 | 0.00 | 0.00 | 53 | 1001.6 |
| 20260504204507 | 81 | 167 | 11.0 | 23.0 | 0.00 | 0.00 | 0.00 | 51 | 1001.7 |
| 20260504203007 | 81 | 200 | 11.0 | 22.0 | 0.00 | 0.00 | 0.00 | 50 | 1001.8 |
| 20260504201505 | 81 | 193 | 10.0 | 20.0 | 0.00 | 0.00 | 0.00 | 51 | 1002.0 |